ROMMA est une association bénévole à but non lucratif. Votre soutien est indispensable : ADHERER à ROMMA ou FAIRE un DON

Granges-lès-Beaumont - (26, Drôme)

Drôme des Collines (155 m)   Longitude: 04°58'E   Latitude: 45°03'N Station partenaire n°123
 

Détail journalier du     <<     >>

Température Precipitation Humidité Pression Vent Dir Rafale Dir. rafale Ensol.
Heure (°C) (mm) (%) (hPa) (km/h) (km/h) (min)
01:00 0.109510253NNO10NNO0
02:00 -1.1094102405ENE0
03:00 -1.309510253ENE10E0
04:00 -1.209610251ENE6ENE0
05:00 -1.309610242ENE11ENE0
06:00 -1.509610242---13ENE0
07:00 -1.5096102500---0
08:00 -1.3096102500---0
09:00 -1.109610252NO8NNO0
10:00 -1.109610253NNO6NNO0
11:00 0.009710251ENE8E0
12:00 0.609710243NE10E0
13:00 1.609710232NE6ENE0
14:00 2.109710231ENE6ENE0
15:00 2.6097102205ENE20
16:00 3.2096102102S30
17:00 2.109510211---5O30
18:00 1.4096102105OSO0
19:00 0.8096102105OSO0
20:00 0.2096102205OSO0
21:00 0.1096102203OSO0
22:00 0.309610221N5OSO0
23:00 0.809710221ONO11ENE0
minuit 2.009710231ENE6ENE0

Graphique du 06-12-2019

 

Serveur OMMA